Location: Lecco
(45.8566°N, 9.3977°E)
Time: 08:40:18
(UTC+02:00)

S-56A Canister/Altair - Pass Details

Date: 30 July 2019
Orbit: 633 x 2499 km, 38.9° (Epoch: 23 August)

Event Time Altitude Azimuth Distance (km) Brightness Sun altitude
Rises 11:05:30 0° 280° (W) 5,386 11.5 49.8°
Reaches altitude 10° 11:09:03 10° 273° (W) 4,602 11.3 50.3°
Maximum altitude 11:20:50 39° 212° (SSW) 3,292 11.2 52.0°
Drops below altitude 10° 11:34:00 10° 152° (SSE) 5,111 12.4 53.8°
Sets 11:38:15 0° 145° (SE) 6,023 12.6 54.4°
